Regional Weather Roundup
Issued by NWS

Home | Current Version | Previous Version | Text Only | Print | Product List | Glossary On
Versions: 1 2 3 4 5 6 7 8 9 10 11 12 13 14 15 16 17 18 19 20 21 22 23 24 25 26 27 28 29 30 31 32 33 34 35 36 37 38 39 40 41 42 43 44 45 46 47 48 49 50
000
ASUS44 KFWD 231215
RWRTX
NORTH TEXAS HOURLY WEATHER ROUNDUP
NATIONAL WEATHER SERVICE FORT WORTH TX
700 AM CDT THU OCT 23 2014

NOTE: "FAIR" INDICATES FEW OR NO CLOUDS BELOW 12,000 FEET WITH NO
SIGNIFICANT WEATHER AND/OR OBSTRUCTIONS TO VISIBILITY.

TXZ118-119-231300-
DALLAS/FORT WORTH METROPLEX

CITY           SKY/WX    TMP DP  RH WIND       PRES   REMARKS
DFW AIRPORT    LGT RAIN  64  55  72 SE6       30.13R
6HR MIN TEMP:  64; 6HR MAX TEMP:  70; 6HR PCP:  0.01;

DALLAS LOVE    CLOUDY    64  54  69 E7        30.13R
6HR MIN TEMP:  64; 6HR MAX TEMP:  69; 6HR PCP: TRACE;

FTW MEACHAM    CLOUDY    67  53  61 SE12      30.12R
6HR MIN TEMP:  67; 6HR MAX TEMP:  71; 6HR PCP: TRACE;

DAL-EXECUTIVE  CLOUDY    64  54  69 SE3       30.13R
6HR MIN TEMP:  64; 6HR MAX TEMP:  69; 6HR PCP: TRACE;

FTW-ALLIANCE   CLOUDY    65  54  67 SE5       30.13R
6HR MIN TEMP:  65; 6HR MAX TEMP:  66; 6HR PCP:  0.01;

FTW-NAS-JRB    CLOUDY    72  52  49 SE6       30.17R
6HR MIN TEMP:  72; 6HR MAX TEMP:  76;

FTW-SPINKS     CLOUDY    64  55  72 SE5       30.14S
ARLINGTON      CLOUDY    66  53  63 SE8       30.13R
6HR MIN TEMP:  66; 6HR MAX TEMP:  70; 6HR PCP: TRACE;

ADDISON        CLOUDY    64  52  63 SE3       30.14S
MESQUITE       MOCLDY    61  54  77 CALM      30.14R
LANCASTER      CLOUDY    62  54  76 CALM      30.14R
6HR MIN TEMP:  62; 6HR MAX TEMP:  65;

$$

TXZ091>094-102>105-117-120-121-131>134-231300-
NORTH CENTRAL TEXAS

CITY           SKY/WX    TMP DP  RH WIND       PRES   REMARKS
SHRMAN/DENISON LGT RAIN  60  58  92 E7        30.14S
6HR MIN TEMP:  60; 6HR MAX TEMP:  66; 6HR PCP:  0.10;

GAINESVILLE    CLOUDY    61  55  82 SE7       30.15S
6HR MIN TEMP:  61; 6HR MAX TEMP:  65;

BOWIE          CLOUDY    63  55  76 SE6       30.12S
6HR MIN TEMP:  63; 6HR MAX TEMP:  65;

BRIDGEPORT     CLOUDY    64  58  80 CALM      30.14R
6HR MIN TEMP:  64; 6HR MAX TEMP:  68;

DECATUR        MOCLDY    63  54  71 SE5       30.13R
6HR MIN TEMP:  63; 6HR MAX TEMP:  67;

DENTON         CLOUDY    64  55  72 SE8       30.13R
6HR MIN TEMP:  63; 6HR MAX TEMP:  67; 6HR PCP:  0.05;

MCKINNEY       LGT RAIN  61  55  81 E3        30.14R
6HR MIN TEMP:  61; 6HR MAX TEMP:  66; 6HR PCP: TRACE;

GREENVILLE     CLOUDY    59  54  82 CALM      30.15R
ROCKWALL       CLOUDY    61  55  81 E3        30.13R
6HR MIN TEMP:  60; 6HR MAX TEMP:  65;

TERRELL        CLOUDY    62  54  74 E3        30.14R
6HR MIN TEMP:  61; 6HR MAX TEMP:  66; 6HR PCP: TRACE;

WAXAHACHIE     CLOUDY    61  57  85 CALM      30.15R
6HR MIN TEMP:  61; 6HR MAX TEMP:  65;

CLEBURNE       CLOUDY    64  57  77 SE6       30.14R
GRANBURY       CLOUDY    67  58  72 SE6       30.13R
6HR MIN TEMP:  67; 6HR MAX TEMP:  71;

$$

TXZ083>090-098>101-113>116-127>130-139>142-154-155-231300-
WESTERN NORTH TEXAS

CITY           SKY/WX    TMP DP  RH WIND       PRES   REMARKS
WICHITA FALLS  PTCLDY    61  58  90 SE8       30.09S
6HR MIN TEMP:  61; 6HR MAX TEMP:  65;

WF-KICKAPOO    PTCLDY    63  58  82 SE9       30.10F
6HR MIN TEMP:  63; 6HR MAX TEMP:  66;

VERNON         CLOUDY    61  57  88 CALM      30.10S VSB 3/4
ABILENE        MOCLDY    61  56  83 S6        30.12F
6HR MIN TEMP:  59; 6HR MAX TEMP:  63;

ABILENE-DYESS  CLOUDY    61  57  87 S5        30.11S
6HR MIN TEMP:  56; 6HR MAX TEMP:  61;

BRECKENRIDGE   MOCLDY    66  58  76 S7        30.10S
6HR MIN TEMP:  65; 6HR MAX TEMP:  67;

GRAHAM         CLOUDY    64  58  82 E3        30.10S
6HR MIN TEMP:  64; 6HR MAX TEMP:  67;

MINERAL WELLS  CLOUDY    63  57  81 E6        30.11R
6HR MIN TEMP:  63; 6HR MAX TEMP:  66;

STEPHENVILLE   CLOUDY    64  57  79 CALM      30.15S
6HR MIN TEMP:  64; 6HR MAX TEMP:  67;

COMANCHE       CLOUDY    63  62  98 CALM      30.12S
6HR MIN TEMP:  63; 6HR MAX TEMP:  67;

BROWNWOOD      CLOUDY    63  59  88 CALM      30.13R
COLEMAN        CLOUDY    62  59  90 CALM      30.13R
6HR MIN TEMP:  60; 6HR MAX TEMP:  64;

BRADY          CLOUDY    63  54  72 CALM      30.12S
$$

TXZ143>147-156>162-174-175-231300-
CENTRAL TEXAS

CITY           SKY/WX    TMP DP  RH WIND       PRES   REMARKS
WACO           CLOUDY    63  59  87 CALM      30.13R
6HR MIN TEMP:  63; 6HR MAX TEMP:  67; 6HR PCP:  0.01;

WACO-TSTC      MOCLDY    63  59  88 CALM      30.13
WACO-MCGREGOR  CLOUDY    63  55  77 CALM      30.14R
6HR MIN TEMP:  63; 6HR MAX TEMP:  68; 6HR PCP:  0.03;

HILLSBORO      CLOUDY    63  54  72 SE5       30.13S
6HR MIN TEMP:  63; 6HR MAX TEMP:  67;

CORSICANA      LGT RAIN  61  56  83 SE8       30.14S
6HR MIN TEMP:  61; 6HR MAX TEMP:  66; 6HR PCP:  0.04;

MEXIA          CLOUDY    59  58  94 NE3       30.12S
6HR MIN TEMP:  59; 6HR MAX TEMP:  65; 6HR PCP:  0.02;

HEARNE         CLOUDY    63  57  80 CALM      30.13R
6HR MIN TEMP:  63; 6HR MAX TEMP:  67;

CAMERON        CLOUDY    63  60  89 CALM      30.12R
6HR MIN TEMP:  63; 6HR MAX TEMP:  67;

TEMPLE         CLOUDY    64  54  68 CALM      30.12S
6HR MIN TEMP:  63; 6HR MAX TEMP:  68;

KILLEEN        CLOUDY    66  57  72 CALM      30.12R
KILLEEN-SKYLRK CLOUDY    64  55  72 CALM      30.12R
6HR MIN TEMP:  64; 6HR MAX TEMP:  70;

FORT HOOD      CLOUDY    66  60  81 CALM      30.12S
6HR MIN TEMP:  66; 6HR MAX TEMP:  71;

GATESVILLE     MOCLDY    63  61  94 CALM      30.14S
HAMILTON       CLOUDY    64  58  79 SE3       30.14R
6HR MIN TEMP:  64; 6HR MAX TEMP:  69;

LAMPASAS       CLOUDY    63  61  93 CALM      30.12R
6HR MIN TEMP:  63; 6HR MAX TEMP:  68;

$$

TXZ095>097-106>112-122>126-135>138-148>153-164>167-231300-
EAST TEXAS

CITY           SKY/WX    TMP DP  RH WIND       PRES   REMARKS
PARIS          CLOUDY    57  48  72 CALM      30.17R
6HR MIN TEMP:  57; 6HR MAX TEMP:  61;

SULPHUR SPRNGS CLOUDY    58  54  86 E3        30.17R
6HR MIN TEMP:  58; 6HR MAX TEMP:  64;

MOUNT PLEASANT CLOUDY    56  53  91 N3        30.18R
6HR MIN TEMP:  55; 6HR MAX TEMP:  62;

MINEOLA        CLOUDY    57  55  94 CALM      30.15S
TYLER          CLOUDY    59  53  80 E3        30.14R
6HR MIN TEMP:  59; 6HR MAX TEMP:  66;

LONGVIEW       CLOUDY    57  53  86 W3        30.15R
6HR MIN TEMP:  57; 6HR MAX TEMP:  60;

MARSHALL       CLOUDY    58  54  86 CALM      30.16S
6HR MIN TEMP:  58; 6HR MAX TEMP:  61;

ATHENS         CLOUDY    57  54  88 CALM      30.13R
PALESTINE      CLOUDY    61  53  74 E5        30.14S
JACKSONVILLE   CLOUDY    58  54  85 CALM      30.16R
HENDERSON      CLOUDY    56  53  90 CALM      30.15R
6HR MIN TEMP:  56; 6HR MAX TEMP:  61;

NACOGDOCHES    CLOUDY    55  50  82 CALM      30.13R
6HR MIN TEMP:  55; 6HR MAX TEMP:  61;

LUFKIN         CLOUDY    61  53  75 N3        30.11S
6HR MIN TEMP:  61; 6HR MAX TEMP:  64;

$$

SUPPLEMENTAL OBSERVATIONS (CENTRAL)

CITY           SKY/WX    TMP DP  RH WIND       PRES   REMARKS
LAKE TEXOMA      N/A     59  55  88 E3          N/A
CADDO GRASSLND   N/A     57  54  88 NE2         N/A
PAT MAYSE LAKE   N/A     57  52  82 NE1         N/A
GREENVILLE       N/A     61  54  77 E5          N/A
PALESTINE        N/A     57  54  88 CALM        N/A
LAKE LIMESTONE   N/A     63  55  77 E1          N/A
MCGREGOR         N/A     63  57  82 CALM        N/A
TEMPLE           N/A     64  57  77 NE2         N/A
$$

SUPPLEMENTAL OBSERVATIONS (WEST)

CITY           SKY/WX    TMP DP  RH WIND       PRES   REMARKS
MILLERS CREEK    N/A     61  55  82 S2          N/A
POSSUM KINGDOM   N/A     64  54  68 SE6         N/A



USA.gov is the U.S. government's official web portal to all federal, state and local government web resources and services.